Location: Denver
(39.7392°N, 104.9903°W)
Time: 00:33:30
(UTC-06:00)

ISS - Visible Passes

Search period start: 25 April 2018 00:00
Search period end: 05 May 2018 00:00
Orbit: 403 x 406 km, 51.6° (Epoch: 25 April)

Date Brightness Start Highest point End Pass type
(mag) Time Alt. Az. Time Alt. Az. Time Alt. Az.
29 Apr -1.0 05:11:18 10° SSE 05:12:18 11° SE 05:13:18 10° ESE visible
01 May -2.2 05:01:00 10° SSW 05:03:49 27° SE 05:06:38 10° ENE visible
02 May -1.4 04:10:51 13° SSE 04:11:39 14° SE 04:13:28 10° E visible
03 May -3.8 04:53:18 20° SW 04:55:26 72° SE 04:58:40 10° NE visible
04 May -2.8 04:03:01 34° SE 04:03:08 34° SE 04:06:08 10° ENE visible
